Moderate Warning for High Temperature
until 8:59 PM CEST
| Temperature (°F) | Max | Average | Min |
|---|---|---|---|
| Max Temperature | 65 | 54.45 | 46 |
| Avg Temperature | 50.57 | 40.63 | 35.08 |
| Min Temperature | 43 | 30.55 | 25 |
| Precipitation (in) | Max | Average | Min | Sum |
|---|---|---|---|---|
| Precipitation | 0.16 | 0.01 | 0 | 0.19 |
| Dew Point (°F) | Max | Average | Min |
|---|---|---|---|
| Dew Point | 42.39 | 28.38 | 14.63 |
| Wind (mph) | Max | Average | Min |
|---|---|---|---|
| Wind | 14 | 7.24 | 3 |
| Gust Wind | - | - | - |
| Sea Level Pressure (in) | Max | Average | Min |
|---|---|---|---|
| Sea Level Pressure | 27.97 | 27.8 | 27.49 |
| Date | Temp High/Low | Dew Pt High/Low | Humidity | Wind | Max Wind | Wind Gust | Pressure | Precip. | Condition |
|---|---|---|---|---|---|---|---|---|---|
| 1/3/2022 | 60 °F / 38 °F | 46 °F / 37 °F | 80 % | 6 mph | - | 27.77 in | 0 in | ||
| 1/4/2022 | 56 °F / 39 °F | 48 °F / 35 °F | 85 % | 12 mph | - | 27.49 in | 0.16 in | ||
| 1/5/2022 | 48 °F / 38 °F | 38 °F / 31 °F | 74 % | 8 mph | - | 27.54 in | 0.03 in | ||
| 1/6/2022 | 46 °F / 30 °F | 37 °F / 28 °F | 80 % | 5 mph | - | 27.59 in | 0 in | ||
| 1/7/2022 | 50 °F / 30 °F | 35 °F / 26 °F | 74 % | 8 mph | - | 27.79 in | 0 in | ||
| 1/8/2022 | 46 °F / 29 °F | 36 °F / 27 °F | 84 % | 8 mph | - | 27.83 in | 0 in | ||
| 1/9/2022 | 57 °F / 31 °F | 45 °F / 29 °F | 80 % | 14 mph | - | 27.68 in | 0 in | ||
| 1/10/2022 | 58 °F / 43 °F | 45 °F / 39 °F | 74 % | 9 mph | - | 27.66 in | 0 in | ||
| 1/11/2022 | 59 °F / 39 °F | 41 °F / 37 °F | 74 % | 12 mph | - | 27.74 in | 0 in | ||
| 1/12/2022 | 56 °F / 37 °F | 36 °F / 17 °F | 52 % | 10 mph | - | 27.83 in | 0 in | ||
| 1/13/2022 | 51 °F / 29 °F | 33 °F / 21 °F | 69 % | 6 mph | - | 27.94 in | 0 in | ||
| 1/14/2022 | 49 °F / 27 °F | 29 °F / 24 °F | 72 % | 7 mph | - | 27.93 in | 0 in | ||
| 1/15/2022 | 49 °F / 26 °F | 32 °F / 24 °F | 73 % | 5 mph | - | 27.83 in | 0 in | ||
| 1/16/2022 | 50 °F / 25 °F | 31 °F / 23 °F | 75 % | 5 mph | - | 27.88 in | 0 in | ||
| 1/17/2022 | 55 °F / 28 °F | 32 °F / 24 °F | 67 % | 6 mph | - | 27.93 in | 0 in | ||
| 1/18/2022 | 57 °F / 26 °F | 29 °F / 20 °F | 61 % | 3 mph | - | 27.89 in | 0 in | ||
| 1/19/2022 | 58 °F / 27 °F | 27 °F / 19 °F | 54 % | 7 mph | - | 27.88 in | 0 in | ||
| 1/20/2022 | 54 °F / 30 °F | 33 °F / 23 °F | 57 % | 12 mph | - | 27.81 in | 0 in | ||
| 1/21/2022 | 49 °F / 29 °F | 30 °F / 18 °F | 61 % | 12 mph | - | 27.75 in | 0 in | ||
| 1/22/2022 | 52 °F / 26 °F | 32 °F / 19 °F | 66 % | 5 mph | - | 27.83 in | 0 in | ||
| 1/23/2022 | 51 °F / 28 °F | 35 °F / 26 °F | 77 % | 5 mph | - | 27.78 in | 0 in | ||
| 1/24/2022 | 49 °F / 30 °F | 32 °F / 27 °F | 69 % | 8 mph | - | 27.81 in | 0 in | ||
| 1/25/2022 | 53 °F / 35 °F | 35 °F / 29 °F | 64 % | 8 mph | - | 27.89 in | 0 in | ||
| 1/26/2022 | 55 °F / 27 °F | 33 °F / 24 °F | 70 % | 7 mph | - | 27.87 in | 0 in | ||
| 1/27/2022 | 60 °F / 29 °F | 30 °F / 12 °F | 62 % | 5 mph | - | 27.85 in | 0 in | ||
| 1/28/2022 | 61 °F / 28 °F | 25 °F / 11 °F | 39 % | 5 mph | - | 27.91 in | 0 in | ||
| 1/29/2022 | 63 °F / 27 °F | 23 °F / 12 °F | 41 % | 3 mph | - | 27.97 in | 0 in | ||
| 1/30/2022 | 65 °F / 28 °F | 23 °F / 8 °F | 36 % | 3 mph | - | 27.87 in | 0 in | ||
| 1/31/2022 | 62 °F / 29 °F | 28 °F / 14 °F | 40 % | 6 mph | - | 27.81 in | 0 in |